GW2849 Weather Reports


Display with metric or nautical units.
time (UTC)temp
F
wind
direction
speed
MPH
gust
MPH
rain 1hr
in
rain 24hr
in
rain mn
in
humidity
%
barometer
mb
20260503011201 46 14 0.0 0.0 0.00 0.00 0.00 54 1017.7
20260503011102 46 14 0.0 0.0 0.00 0.00 0.00 54 1017.7
20260503011000 46 14 0.0 0.0 0.00 0.00 0.00 54 1017.6
20260503010901 46 14 0.0 2.0 0.00 0.00 0.00 53 1017.6
20260503010800 46 14 0.0 3.0 0.00 0.00 0.00 53 1017.7
20260503010700 46 14 0.0 3.0 0.00 0.00 0.00 53 1017.7
20260503010602 46 14 0.0 5.0 0.00 0.00 0.00 53 1017.6
20260503010501 46 14 0.0 5.0 0.00 0.00 0.00 53 1017.6
20260503010400 46 14 0.0 5.0 0.00 0.00 0.00 53 1017.6
20260503010301 46 16 0.0 5.0 0.00 0.00 0.00 53 1017.7
20260503010201 46 19 0.0 5.0 0.00 0.00 0.00 53 1017.6
20260503010001 46 5 2.0 5.0 0.00 0.00 0.00 53 1017.7
20260503005901 46 11 0.0 5.0 0.00 0.00 0.00 52 1017.7
20260503005800 46 10 0.0 5.0 0.00 0.00 0.00 52 1017.6
20260503005701 46 14 2.0 4.0 0.00 0.00 0.00 53 1017.6
20260503005600 47 15 2.0 4.0 0.00 0.00 0.00 52 1017.6
20260503005500 47 341 0.0 6.0 0.00 0.00 0.00 52 1017.6
20260503005400 47 347 0.0 6.0 0.00 0.00 0.00 52 1017.6
20260503005300 47 348 0.0 6.0 0.00 0.00 0.00 52 1017.5
20260503005200 47 348 1.0 6.0 0.00 0.00 0.00 52 1017.6
20260503005101 47 346 0.0 6.0 0.00 0.00 0.00 52 1017.6
20260503005000 47 333 2.0 6.0 0.00 0.00 0.00 52 1017.6
20260503004901 47 14 1.0 6.0 0.00 0.00 0.00 52 1017.5
20260503004801 47 23 0.0 6.0 0.00 0.00 0.00 51 1017.5
20260503004700 47 22 3.0 6.0 0.00 0.00 0.00 51 1017.5
20260503004603 47 360 3.0 3.0 0.00 0.00 0.00 52 1017.5
20260503004500 47 17 0.0 4.0 0.00 0.00 0.00 51 1017.5
20260503004402 47 27 3.0 4.0 0.00 0.00 0.00 51 1017.5
20260503004200 47 336 1.0 4.0 0.00 0.00 0.00 51 1017.6
20260503004000 47 5 1.0 4.0 0.00 0.00 0.00 51 1017.4
20260503003901 47 15 2.0 4.0 0.00 0.00 0.00 51 1017.4
20260503003800 47 343 2.0 4.0 0.00 0.00 0.00 51 1017.4
20260503003600 48 346 3.0 4.0 0.00 0.00 0.00 51 1017.4
20260503003500 48 335 0.0 1.0 0.00 0.00 0.00 51 1017.4
20260503003401 48 335 0.0 4.0 0.00 0.00 0.00 51 1017.3
20260503003301 48 335 0.0 4.0 0.00 0.00 0.00 50 1017.3
20260503003200 48 335 0.0 4.0 0.00 0.00 0.00 50 1017.3
20260503003102 48 335 0.0 4.0 0.00 0.00 0.00 50 1017.3
20260503002859 48 335 0.0 4.0 0.00 0.00 0.00 50 1017.2
20260503002801 48 335 0.0 5.0 0.00 0.00 0.00 49 1017.3
20260503002700 48 335 0.0 5.0 0.00 0.00 0.00 49 1017.3
20260503002601 48 334 1.0 5.0 0.00 0.00 0.00 49 1017.2
20260503002501 48 355 1.0 5.0 0.00 0.00 0.00 49 1017.2
20260503002300 48 5 2.0 5.0 0.00 0.00 0.00 49 1017.1
20260503002200 48 355 1.0 5.0 0.00 0.00 0.00 49 1017.2
20260503002100 48 331 0.0 5.0 0.00 0.00 0.00 48 1017.1
20260503002000 48 334 2.0 5.0 0.00 0.00 0.00 48 1017.0
20260503001900 48 325 1.0 4.0 0.00 0.00 0.00 49 1017.1
20260503001800 48 333 1.0 4.0 0.00 0.00 0.00 50 1017.1
20260503001701 49 333 3.0 6.0 0.00 0.00 0.00 49 1017.1
20260503001601 49 5 0.0 6.0 0.00 0.00 0.00 49 1017.1
20260503001402 49 333 2.0 6.0 0.00 0.00 0.00 49 1017.1
20260503001302 49 355 1.0 6.0 0.00 0.00 0.00 49 1017.0
20260503001201 49 350 2.0 6.0 0.00 0.00 0.00 50 1017.0
20260503001101 49 21 2.0 6.0 0.00 0.00 0.00 48 1017.0
20260503001001 49 22 0.0 10.0 0.00 0.00 0.00 48 1016.9
20260503000901 49 22 1.0 10.0 0.00 0.00 0.00 48 1016.9
20260503000700 49 350 2.0 10.0 0.00 0.00 0.00 48 1016.9
20260503000600 49 9 0.0 10.0 0.00 0.00 0.00 48 1016.9
20260503000501 49 9 0.0 10.0 0.00 0.00 0.00 48 1016.9
20260503000402 49 9 1.0 10.0 0.00 0.00 0.00 47 1016.9
20260503000300 49 5 2.0 10.0 0.00 0.00 0.00 47 1016.9
20260503000200 49 19 10.0 10.0 0.00 0.00 0.00 47 1016.8
20260503000100 49 57 0.0 5.0 0.00 0.00 0.00 47 1016.8
20260503000004 49 348 1.0 8.0 0.00 0.00 0.00 48 1016.8
20260502235903 49 326 0.0 8.0 0.00 0.00 0.00 47 1016.9
20260502235702 50 18 1.0 8.0 0.00 0.00 0.00 49 1016.9
20260502235602 50 360 0.0 8.0 0.00 0.00 0.00 48 1016.8
20260502235502 50 355 0.0 8.0 0.00 0.00 0.00 48 1016.8
20260502235401 50 355 0.0 8.0 0.00 0.00 0.00 47 1016.8
20260502235301 50 19 3.0 8.0 0.00 0.00 0.00 47 1016.8
20260502235202 50 360 4.0 8.0 0.00 0.00 0.00 46 1016.8
20260502235103 50 355 5.0 8.0 0.00 0.00 0.00 47 1016.8
20260502235002 50 9 0.0 4.0 0.00 0.00 0.00 47 1016.8
20260502234901 50 26 1.0 4.0 0.00 0.00 0.00 47 1016.8
20260502234801 50 347 0.0 4.0 0.00 0.00 0.00 46 1016.8
20260502234702 50 5 0.0 4.0 0.00 0.00 0.00 47 1016.8
20260502234602 50 24 1.0 5.0 0.00 0.00 0.00 46 1016.7
20260502234502 50 24 1.0 6.0 0.00 0.00 0.00 46 1016.7
20260502234400 50 355 2.0 6.0 0.00 0.00 0.00 46 1016.7
20260502234303 50 11 0.0 8.0 0.00 0.00 0.00 46 1016.7
20260502234202 50 5 0.0 8.0 0.00 0.00 0.00 47 1016.8
20260502234102 51 5 0.0 8.0 0.00 0.00 0.00 46 1016.7
20260502234001 51 16 3.0 8.0 0.00 0.00 0.00 46 1016.7
20260502233902 51 20 1.0 8.0 0.00 0.00 0.00 46 1016.7
20260502233802 51 12 0.0 8.0 0.00 0.00 0.00 46 1016.7
20260502233701 51 326 5.0 8.0 0.00 0.00 0.00 45 1016.7
20260502233601 51 336 3.0 8.0 0.00 0.00 0.00 45 1016.7
20260502233503 51 5 3.0 8.0 0.00 0.00 0.00 45 1016.7
20260502233400 51 344 1.0 3.0 0.00 0.00 0.00 45 1016.6
20260502233302 51 343 1.0 4.0 0.00 0.00 0.00 45 1016.6
20260502233201 51 342 1.0 6.0 0.00 0.00 0.00 45 1016.7
20260502233001 51 9 1.0 10.0 0.00 0.00 0.00 45 1016.6
20260502232901 51 351 0.0 10.0 0.00 0.00 0.00 44 1016.7
20260502232802 51 5 0.0 10.0 0.00 0.00 0.00 44 1016.7
20260502232701 51 5 0.0 10.0 0.00 0.00 0.00 44 1016.7
20260502232602 51 38 1.0 10.0 0.00 0.00 0.00 45 1016.6
20260502232402 51 333 3.0 10.0 0.00 0.00 0.00 44 1016.6
20260502232304 51 360 5.0 10.0 0.00 0.00 0.00 44 1016.6
20260502232201 51 341 1.0 5.0 0.00 0.00 0.00 45 1016.7
20260502232002 52 360 2.0 5.0 0.00 0.00 0.00 45 1016.7
20260502231901 52 9 2.0 5.0 0.00 0.00 0.00 45 1016.7
20260502231803 52 18 0.0 5.0 0.00 0.00 0.00 45 1016.6
20260502231700 52 9 1.0 5.0 0.00 0.00 0.00 45 1016.7
20260502231602 52 344 0.0 5.0 0.00 0.00 0.00 45 1016.6
20260502231502 52 348 2.0 5.0 0.00 0.00 0.00 44 1016.5
20260502231404 52 327 0.0 5.0 0.00 0.00 0.00 44 1016.5
20260502231301 52 360 2.0 8.0 0.00 0.00 0.00 44 1016.6
20260502231202 52 68 1.0 8.0 0.00 0.00 0.00 44 1016.5
20260502231102 52 31 1.0 8.0 0.00 0.00 0.00 44 1016.5
20260502231001 52 26 0.0 8.0 0.00 0.00 0.00 44 1016.7
20260502230902 52 24 3.0 8.0 0.00 0.00 0.00 44 1016.7
20260502230801 52 334 2.0 8.0 0.00 0.00 0.00 43 1016.6
20260502230701 52 329 1.0 8.0 0.00 0.00 0.00 43 1016.7
20260502230601 52 332 0.0 8.0 0.00 0.00 0.00 43 1016.7
20260502230502 52 344 5.0 8.0 0.00 0.00 0.00 42 1016.6
20260502230401 53 355 4.0 8.0 0.00 0.00 0.00 43 1016.7
20260502230302 53 333 0.0 2.0 0.00 0.00 0.00 43 1016.6
20260502230201 53 360 2.0 4.0 0.00 0.00 0.00 43 1016.5
20260502230101 53 248 1.0 4.0 0.00 0.00 0.00 43 1016.6
20260502230001 53 321 0.0 4.0 0.00 0.00 0.00 43 1016.6
20260502225902 53 317 0.0 4.0 0.00 0.00 0.00 43 1016.6
20260502225800 53 275 2.0 5.0 0.00 0.00 0.00 43 1016.6
20260502225602 53 355 0.0 5.0 0.00 0.00 0.00 44 1016.6
20260502225502 53 355 0.0 5.0 0.00 0.00 0.00 43 1016.6
20260502225400 53 355 1.0 5.0 0.00 0.00 0.00 44 1016.6
20260502225202 53 5 0.0 5.0 0.00 0.00 0.00 43 1016.5
20260502225101 53 5 1.0 5.0 0.00 0.00 0.00 43 1016.6
20260502225000 53 324 1.0 5.0 0.00 0.00 0.00 43 1016.5
20260502224900 53 355 2.0 5.0 0.00 0.00 0.00 43 1016.5
20260502224600 53 330 0.0 8.0 0.00 0.00 0.00 43 1016.5
20260502224500 53 334 1.0 8.0 0.00 0.00 0.00 43 1016.5
20260502224401 53 331 2.0 8.0 0.00 0.00 0.00 42 1016.5
20260502224300 53 350 1.0 8.0 0.00 0.00 0.00 44 1016.5
20260502224200 53 5 1.0 8.0 0.00 0.00 0.00 43 1016.5
20260502224101 53 342 2.0 8.0 0.00 0.00 0.00 43 1016.5
20260502224001 53 281 0.0 8.0 0.00 0.00 0.00 44 1016.6
20260502223901 53 300 2.0 8.0 0.00 0.00 0.00 44 1016.5
20260502223800 53 341 2.0 8.0 0.00 0.00 0.00 44 1016.6
20260502223700 53 346 3.0 4.0 0.00 0.00 0.00 43 1016.5
20260502223602 53 315 1.0 4.0 0.00 0.00 0.00 45 1016.5
20260502223503 53 350 3.0 4.0 0.00 0.00 0.00 45 1016.6
20260502223401 52 346 1.0 4.0 0.00 0.00 0.00 45 1016.5
20260502223300 52 15 0.0 4.0 0.00 0.00 0.00 44 1016.6
20260502223201 52 15 2.0 12.0 0.00 0.00 0.00 44 1016.6
20260502223002 52 350 2.0 12.0 0.00 0.00 0.00 44 1016.6
20260502222901 52 349 2.0 12.0 0.00 0.00 0.00 43 1016.6
20260502222802 52 355 2.0 12.0 0.00 0.00 0.00 44 1016.6
20260502222703 52 351 0.0 12.0 0.00 0.00 0.00 43 1016.6
20260502222501 52 332 4.0 12.0 0.00 0.00 0.00 42 1016.6
20260502222402 53 5 3.0 12.0 0.00 0.00 0.00 42 1016.6
20260502222305 53 38 10.0 12.0 0.00 0.00 0.00 42 1016.5
20260502222201 53 355 0.0 9.0 0.00 0.00 0.00 42 1016.6
20260502222000 53 34 2.0 9.0 0.00 0.00 0.00 41 1016.6
20260502221900 53 9 0.0 9.0 0.00 0.00 0.00 41 1016.6
20260502221801 53 350 3.0 9.0 0.00 0.00 0.00 41 1016.7
20260502221701 53 324 3.0 9.0 0.00 0.00 0.00 42 1016.6
20260502221502 53 39 4.0 10.0 0.00 0.00 0.00 42 1016.5
20260502221401 53 320 0.0 10.0 0.00 0.00 0.00 43 1016.5
20260502221302 53 350 6.0 10.0 0.00 0.00 0.00 43 1016.5
20260502221201 53 16 5.0 10.0 0.00 0.00 0.00 43 1016.5
20260502221101 54 22 2.0 10.0 0.00 0.00 0.00 43 1016.5
20260502221001 54 5 2.0 10.0 0.00 0.00 0.00 43 1016.5
20260502220902 54 5 0.0 10.0 0.00 0.00 0.00 42 1016.5
20260502220802 53 346 2.0 10.0 0.00 0.00 0.00 43 1016.5
20260502220601 53 360 2.0 10.0 0.00 0.00 0.00 44 1016.3
20260502220502 53 304 0.0 10.0 0.00 0.00 0.00 43 1016.3
20260502220401 53 319 2.0 10.0 0.00 0.00 0.00 43 1016.3
20260502220302 53 290 1.0 10.0 0.00 0.00 0.00 42 1016.3
20260502220203 53 16 1.0 10.0 0.00 0.00 0.00 43 1016.4
20260502220001 54 343 0.0 10.0 0.00 0.00 0.00 42 1016.5
20260502215800 54 348 2.0 10.0 0.00 0.00 0.00 42 1016.5
20260502215700 54 61 3.0 8.0 0.00 0.00 0.00 41 1016.4
20260502215600 54 37 2.0 8.0 0.00 0.00 0.00 42 1016.5
20260502215501 54 10 1.0 8.0 0.00 0.00 0.00 42 1016.5
20260502215402 54 11 3.0 8.0 0.00 0.00 0.00 42 1016.5
20260502215300 54 5 1.0 8.0 0.00 0.00 0.00 42 1016.5
20260502215200 54 355 2.0 8.0 0.00 0.00 0.00 42 1016.5
20260502215100 54 355 2.0 8.0 0.00 0.00 0.00 42 1016.5
20260502214959 55 315 2.0 8.0 0.00 0.00 0.00 42 1016.4
20260502214859 55 13 5.0 5.0 0.00 0.00 0.00 43 1016.4
20260502214759 55 344 1.0 5.0 0.00 0.00 0.00 43 1016.4
20260502214559 54 36 3.0 9.0 0.00 0.00 0.00 41 1016.3
20260502214459 54 355 0.0 9.0 0.00 0.00 0.00 43 1016.3
20260502214401 54 347 0.0 9.0 0.00 0.00 0.00 43 1016.4
20260502214303 54 346 2.0 9.0 0.00 0.00 0.00 40 1016.4
20260502214000 54 341 1.0 9.0 0.00 0.00 0.00 42 1016.4
20260502213901 54 344 2.0 9.0 0.00 0.00 0.00 43 1016.4
20260502213800 54 319 4.0 9.0 0.00 0.00 0.00 42 1016.4
20260502213559 54 355 1.0 5.0 0.00 0.00 0.00 42 1016.3
20260502213500 54 350 1.0 5.0 0.00 0.00 0.00 41 1016.3
20260502213401 54 5 2.0 5.0 0.00 0.00 0.00 41 1016.3
20260502213201 54 20 1.0 5.0 0.00 0.00 0.00 41 1016.3
20260502213101 54 341 2.0 5.0 0.00 0.00 0.00 41 1016.3
20260502213000 54 340 4.0 5.0 0.00 0.00 0.00 41 1016.3
20260502212900 54 80 2.0 4.0 0.00 0.00 0.00 42 1016.3
20260502212800 54 11 1.0 4.0 0.00 0.00 0.00 42 1016.3
20260502212700 54 163 1.0 8.0 0.00 0.00 0.00 41 1016.4
20260502212600 54 355 1.0 8.0 0.00 0.00 0.00 42 1016.3
20260502212502 54 327 0.0 8.0 0.00 0.00 0.00 42 1016.3
20260502212402 54 140 0.0 8.0 0.00 0.00 0.00 42 1016.3
20260502212300 54 360 0.0 8.0 0.00 0.00 0.00 44 1016.4
20260502212200 54 360 0.0 8.0 0.00 0.00 0.00 44 1016.3
20260502212001 54 313 0.0 8.0 0.00 0.00 0.00 42 1016.2
20260502211900 54 324 0.0 8.0 0.00 0.00 0.00 41 1016.3
20260502211802 54 355 3.0 4.0 0.00 0.00 0.00 42 1016.3
20260502211700 53 338 0.0 4.0 0.00 0.00 0.00 43 1016.3
20260502211602 53 336 0.0 4.0 0.00 0.00 0.00 42 1016.4
20260502211501 54 340 1.0 9.0 0.00 0.00 0.00 43 1016.4
20260502211301 54 342 2.0 9.0 0.00 0.00 0.00 41 1016.3
20260502211000 54 338 2.0 9.0 0.00 0.00 0.00 41 1016.3
20260502210901 54 355 1.0 9.0 0.00 0.00 0.00 40 1016.3
20260502210800 54 333 1.0 9.0 0.00 0.00 0.00 39 1016.3
20260502210701 55 355 5.0 9.0 0.00 0.00 0.00 39 1016.2
20260502210559 55 350 2.0 8.0 0.00 0.00 0.00 39 1016.3
20260502210501 55 329 1.0 8.0 0.00 0.00 0.00 37 1016.2
20260502210400 55 23 3.0 8.0 0.00 0.00 0.00 38 1016.3
20260502210300 56 284 4.0 7.0 0.00 0.00 0.00 39 1016.3
20260502210201 56 334 1.0 5.0 0.00 0.00 0.00 38 1016.2
20260502210100 56 319 0.0 5.0 0.00 0.00 0.00 40 1016.2
20260502210002 56 5 1.0 5.0 0.00 0.00 0.00 39 1016.2
20260502205900 56 38 0.0 5.0 0.00 0.00 0.00 39 1016.2
20260502205800 56 327 1.0 5.0 0.00 0.00 0.00 41 1016.2
20260502205701 56 308 1.0 5.0 0.00 0.00 0.00 40 1016.3
20260502205600 56 11 1.0 5.0 0.00 0.00 0.00 39 1016.2
20260502205500 56 355 2.0 5.0 0.00 0.00 0.00 40 1016.2
20260502205401 56 278 0.0 6.0 0.00 0.00 0.00 42 1016.2
20260502205259 56 343 2.0 6.0 0.00 0.00 0.00 43 1016.1
20260502205101 56 351 0.0 6.0 0.00 0.00 0.00 43 1016.2
20260502205003 56 274 1.0 6.0 0.00 0.00 0.00 41 1016.2
20260502204901 56 355 0.0 6.0 0.00 0.00 0.00 40 1016.2
20260502204700 56 5 3.0 6.0 0.00 0.00 0.00 38 1016.3
20260502204600 56 5 3.0 4.0 0.00 0.00 0.00 40 1016.3
20260502204500 56 355 3.0 4.0 0.00 0.00 0.00 40 1016.3
20260502204400 56 5 1.0 5.0 0.00 0.00 0.00 40 1016.3
20260502204303 56 328 0.0 5.0 0.00 0.00 0.00 39 1016.3
20260502204200 56 258 0.0 5.0 0.00 0.00 0.00 40 1016.3
20260502204100 56 201 1.0 5.0 0.00 0.00 0.00 41 1016.3
20260502204002 56 205 1.0 6.0 0.00 0.00 0.00 40 1016.3
20260502203900 56 217 0.0 6.0 0.00 0.00 0.00 41 1016.3
20260502203800 56 335 2.0 8.0 0.00 0.00 0.00 39 1016.3
20260502203600 57 340 2.0 8.0 0.00 0.00 0.00 38 1016.4
20260502203501 57 360 2.0 8.0 0.00 0.00 0.00 39 1016.4
20260502203400 57 327 1.0 8.0 0.00 0.00 0.00 38 1016.3
20260502203259 57 342 1.0 8.0 0.00 0.00 0.00 39 1016.2
20260502203201 57 311 2.0 8.0 0.00 0.00 0.00 40 1016.2
20260502203000 58 322 1.0 8.0 0.00 0.00 0.00 38 1016.3
20260502202759 58 325 3.0 8.0 0.00 0.00 0.00 38 1016.3
20260502202703 58 322 0.0 8.0 0.00 0.00 0.00 42 1016.3
20260502202500 57 24 5.0 6.0 0.00 0.00 0.00 40 1016.4
20260502202304 57 324 0.0 6.0 0.00 0.00 0.00 42 1016.3
20260502202201 57 51 0.0 6.0 0.00 0.00 0.00 42 1016.3
20260502202101 57 227 1.0 5.0 0.00 0.00 0.00 40 1016.3
20260502202001 57 185 3.0 5.0 0.00 0.00 0.00 39 1016.3
20260502201902 57 205 3.0 5.0 0.00 0.00 0.00 42 1016.3
20260502201800 56 318 1.0 5.0 0.00 0.00 0.00 45 1016.4
20260502201659 56 338 3.0 5.0 0.00 0.00 0.00 43 1016.4
20260502201600 56 302 1.0 4.0 0.00 0.00 0.00 46 1016.4
20260502201500 56 348 2.0 4.0 0.00 0.00 0.00 45 1016.4
20260502201400 56 9 0.0 6.0 0.00 0.00 0.00 42 1016.3
20260502201301 55 29 1.0 6.0 0.00 0.00 0.00 42 1016.3
20260502201200 55 333 2.0 6.0 0.00 0.00 0.00 41 1016.4
20260502201001 55 22 0.0 11.0 0.00 0.00 0.00 40 1016.4
20260502200901 55 294 0.0 11.0 0.00 0.00 0.00 38 1016.4
20260502200759 56 279 0.0 11.0 0.00 0.00 0.00 38 1016.4
20260502200702 56 38 0.0 11.0 0.00 0.00 0.00 39 1016.4
20260502200459 56 20 4.0 11.0 0.00 0.00 0.00 39 1016.5
20260502200300 56 346 3.0 11.0 0.00 0.00 0.00 40 1016.5
20260502200201 56 355 2.0 11.0 0.00 0.00 0.00 41 1016.5
20260502200003 56 30 4.0 9.0 0.00 0.00 0.00 42 1016.5
20260502195901 56 340 2.0 9.0 0.00 0.00 0.00 40 1016.5
20260502195700 56 316 3.0 9.0 0.00 0.00 0.00 44 1016.6
20260502195601 56 311 1.0 5.0 0.00 0.00 0.00 40 1016.5
20260502195502 56 232 1.0 5.0 0.00 0.00 0.00 41 1016.5
20260502195401 56 204 1.0 5.0 0.00 0.00 0.00 40 1016.5
20260502195300 56 190 3.0 6.0 0.00 0.00 0.00 43 1016.5
20260502195200 56 333 2.0 6.0 0.00 0.00 0.00 44 1016.6
20260502195101 56 186 0.0 6.0 0.00 0.00 0.00 43 1016.6
20260502194900 55 148 2.0 6.0 0.00 0.00 0.00 44 1016.5
20260502194800 55 355 1.0 6.0 0.00 0.00 0.00 46 1016.6
20260502194659 55 328 1.0 6.0 0.00 0.00 0.00 45 1016.6
20260502194559 55 317 2.0 6.0 0.00 0.00 0.00 44 1016.5
20260502194501 54 360 3.0 11.0 0.00 0.00 0.00 43 1016.5
20260502194300 54 186 4.0 11.0 0.00 0.00 0.00 49 1016.5
20260502194159 54 345 2.0 11.0 0.00 0.00 0.00 47 1016.4
20260502194000 54 288 0.0 11.0 0.00 0.00 0.00 42 1016.4
20260502193859 54 246 0.0 11.0 0.00 0.00 0.00 41 1016.5
20260502193802 54 5 3.0 11.0 0.00 0.00 0.00 40 1016.5
20260502193700 54 80 3.0 11.0 0.00 0.00 0.00 42 1016.5
20260502193601 54 329 2.0 9.0 0.00 0.00 0.00 41 1016.6
20260502193401 54 340 3.0 9.0 0.00 0.00 0.00 42 1016.5
20260502193300 54 351 4.0 9.0 0.00 0.00 0.00 41 1016.5
20260502193201 54 329 3.0 9.0 0.00 0.00 0.00 40 1016.5
20260502193100 55 16 3.0 9.0 0.00 0.00 0.00 40 1016.6
20260502193002 55 5 8.0 9.0 0.00 0.00 0.00 41 1016.6
20260502192900 55 317 3.0 9.0 0.00 0.00 0.00 40 1016.6
20260502192800 55 5 5.0 9.0 0.00 0.00 0.00 41 1016.6
20260502192700 55 355 3.0 8.0 0.00 0.00 0.00 41 1016.5
20260502192601 55 350 3.0 8.0 0.00 0.00 0.00 42 1016.6
20260502192500 55 329 3.0 6.0 0.00 0.00 0.00 42 1016.6
20260502192403 55 303 1.0 10.0 0.00 0.00 0.00 42 1016.5
20260502192300 55 347 2.0 13.0 0.00 0.00 0.00 42 1016.5
20260502192201 55 324 1.0 13.0 0.00 0.00 0.00 42 1016.6
20260502192101 55 315 1.0 13.0 0.00 0.00 0.00 40 1016.6
20260502192001 55 5 2.0 13.0 0.00 0.00 0.00 42 1016.6
20260502191802 55 323 2.0 13.0 0.00 0.00 0.00 43 1016.5
20260502191700 55 344 3.0 13.0 0.00 0.00 0.00 44 1016.5
20260502191501 55 360 4.0 13.0 0.00 0.00 0.00 42 1016.6
20260502191402 55 28 5.0 10.0 0.00 0.00 0.00 44 1016.6
20260502191300 54 11 4.0 10.0 0.00 0.00 0.00 44 1016.6
20260502191200 54 355 6.0 10.0 0.00 0.00 0.00 45 1016.7
20260502191100 54 331 0.0 10.0 0.00 0.00 0.00 44 1016.7
20260502191000 54 324 0.0 10.0 0.00 0.00 0.00 44 1016.7
20260502190801 54 294 1.0 10.0 0.00 0.00 0.00 45 1016.8
20260502190500 54 10 3.0 10.0 0.00 0.00 0.00 44 1016.7
20260502190400 54 355 1.0 5.0 0.00 0.00 0.00 44 1016.7
20260502190201 54 337 3.0 6.0 0.00 0.00 0.00 44 1016.7
20260502190059 54 355 2.0 6.0 0.00 0.00 0.00 45 1016.8
20260502185901 54 324 0.0 6.0 0.00 0.00 0.00 43 1016.8
20260502185800 54 338 0.0 6.0 0.00 0.00 0.00 45 1016.8
20260502185604 54 347 3.0 6.0 0.00 0.00 0.00 44 1016.8
20260502185503 54 320 2.0 6.0 0.00 0.00 0.00 43 1016.7
20260502185300 54 24 2.0 4.0 0.00 0.00 0.00 45 1016.7
20260502185200 54 338 2.0 8.0 0.00 0.00 0.00 43 1016.8
20260502185101 54 15 1.0 8.0 0.00 0.00 0.00 45 1016.7
20260502185000 54 35 1.0 8.0 0.00 0.00 0.00 44 1016.8
20260502184900 54 360 2.0 9.0 0.00 0.00 0.00 43 1016.8
20260502184800 54 192 2.0 9.0 0.00 0.00 0.00 45 1016.7
20260502184701 54 311 1.0 9.0 0.00 0.00 0.00 45 1016.7
20260502184602 54 347 2.0 9.0 0.00 0.00 0.00 44 1016.8
20260502184500 54 287 2.0 9.0 0.00 0.00 0.00 45 1016.8
20260502184359 54 360 2.0 9.0 0.00 0.00 0.00 42 1016.8
20260502184300 55 14 7.0 9.0 0.00 0.00 0.00 42 1016.8
20260502184100 55 317 1.0 9.0 0.00 0.00 0.00 43 1016.8
20260502183900 55 19 2.0 8.0 0.00 0.00 0.00 46 1016.8
20260502183800 55 196 2.0 8.0 0.00 0.00 0.00 46 1016.8
20260502183700 55 348 0.0 8.0 0.00 0.00 0.00 46 1016.8
20260502183601 55 343 2.0 8.0 0.00 0.00 0.00 46 1016.8
20260502183501 54 334 3.0 8.0 0.00 0.00 0.00 45 1016.8
20260502183400 54 341 2.0 8.0 0.00 0.00 0.00 45 1016.9
20260502183159 54 323 6.0 6.0 0.00 0.00 0.00 46 1016.9
20260502183103 54 336 1.0 6.0 0.00 0.00 0.00 46 1016.9
20260502183001 54 355 1.0 6.0 0.00 0.00 0.00 45 1016.9
20260502182802 54 340 3.0 6.0 0.00 0.00 0.00 46 1016.9
20260502182601 54 24 4.0 6.0 0.00 0.00 0.00 45 1016.9
20260502182500 54 309 2.0 6.0 0.00 0.00 0.00 45 1016.9
20260502182401 54 22 6.0 6.0 0.00 0.00 0.00 43 1016.9
20260502182200 55 175 1.0 5.0 0.00 0.00 0.00 45 1016.9
20260502182100 54 281 1.0 5.0 0.00 0.00 0.00 46 1016.9
20260502182000 54 360 3.0 5.0 0.00 0.00 0.00 45 1016.9
20260502181900 54 346 4.0 5.0 0.00 0.00 0.00 45 1016.9
20260502181801 54 304 1.0 5.0 0.00 0.00 0.00 47 1016.9
20260502181700 54 327 1.0 5.0 0.00 0.00 0.00 46 1017.0
20260502181502 54 327 2.0 6.0 0.00 0.00 0.00 47 1016.9
20260502181400 54 345 0.0 6.0 0.00 0.00 0.00 45 1016.9
20260502181300 54 336 0.0 6.0 0.00 0.00 0.00 45 1017.0
20260502181201 54 321 0.0 6.0 0.00 0.00 0.00 45 1016.9
20260502181001 54 329 3.0 6.0 0.00 0.00 0.00 45 1016.9
20260502180901 54 326 4.0 6.0 0.00 0.00 0.00 45 1016.9
20260502180800 54 349 5.0 6.0 0.00 0.00 0.00 45 1016.9
20260502180700 54 15 4.0 4.0 0.00 0.00 0.00 47 1017.0
20260502180600 54 322 0.0 10.0 0.00 0.00 0.00 46 1016.9
20260502180500 54 298 1.0 10.0 0.00 0.00 0.00 46 1016.9
20260502180401 54 323 2.0 10.0 0.00 0.00 0.00 46 1016.9
20260502180300 54 282 0.0 10.0 0.00 0.00 0.00 46 1016.9
20260502170501 56 350 4.0 6.0 0.00 0.00 0.00 48 1017.2
20260502170400 56 103 1.0 6.0 0.00 0.00 0.00 50 1017.3
20260502170300 56 321 2.0 6.0 0.00 0.00 0.00 49 1017.2
20260502164300 55 313 4.0 8.0 0.00 0.00 0.00 45 1017.4
20260502164159 55 336 2.0 8.0 0.00 0.00 0.00 47 1017.4
20260502164001 56 37 1.0 12.0 0.00 0.00 0.00 45 1017.5
20260502163901 56 15 2.0 12.0 0.00 0.00 0.00 46 1017.5
20260502163800 56 355 4.0 12.0 0.00 0.00 0.00 47 1017.5
20260502163700 56 27 4.0 12.0 0.00 0.00 0.00 49 1017.5
20260502163600 56 355 4.0 12.0 0.00 0.00 0.00 50 1017.4
20260502163502 55 19 2.0 12.0 0.00 0.00 0.00 50 1017.5
20260502163400 55 24 1.0 12.0 0.00 0.00 0.00 49 1017.5
20260502163301 55 68 1.0 12.0 0.00 0.00 0.00 47 1017.5
20260502163159 55 301 3.0 12.0 0.00 0.00 0.00 49 1017.5
20260502163059 55 261 0.0 8.0 0.00 0.00 0.00 47 1017.6
20260502163001 55 312 1.0 6.0 0.00 0.00 0.00 50 1017.5
20260502162900 55 350 2.0 6.0 0.00 0.00 0.00 51 1017.6
20260502162800 55 323 3.0 7.0 0.00 0.00 0.00 49 1017.6
20260502162700 55 15 4.0 5.0 0.00 0.00 0.00 49 1017.6
20260502162559 55 347 2.0 5.0 0.00 0.00 0.00 50 1017.7
20260502162459 55 252 1.0 5.0 0.00 0.00 0.00 50 1017.6
20260502162401 54 5 2.0 5.0 0.00 0.00 0.00 49 1017.6
20260502162304 54 342 1.0 4.0 0.00 0.00 0.00 50 1017.6
20260502162159 54 311 4.0 4.0 0.00 0.00 0.00 51 1017.6
20260502162100 54 325 1.0 4.0 0.00 0.00 0.00 47 1017.7
20260502162001 54 51 1.0 4.0 0.00 0.00 0.00 50 1017.7
20260502161759 54 242 2.0 4.0 0.00 0.00 0.00 54 1017.7
20260502161659 54 51 0.0 4.0 0.00 0.00 0.00 52 1017.7
20260502161600 54 355 0.0 6.0 0.00 0.00 0.00 53 1017.7
20260502161500 54 5 2.0 6.0 0.00 0.00 0.00 50 1017.7
20260502161259 54 197 2.0 6.0 0.00 0.00 0.00 54 1017.7
20260502161159 54 284 1.0 9.0 0.00 0.00 0.00 54 1017.7
20260502161059 53 307 0.0 9.0 0.00 0.00 0.00 53 1017.7
20260502160959 53 101 1.0 9.0 0.00 0.00 0.00 52 1017.7
20260502160859 53 339 0.0 9.0 0.00 0.00 0.00 54 1017.8
20260502160759 53 338 2.0 9.0 0.00 0.00 0.00 53 1017.8
20260502160659 53 333 3.0 9.0 0.00 0.00 0.00 55 1017.7
20260502160458 53 321 2.0 9.0 0.00 0.00 0.00 52 1017.7
20260502160259 53 355 2.0 9.0 0.00 0.00 0.00 51 1017.8
20260502160159 53 5 2.0 9.0 0.00 0.00 0.00 52 1017.8
20260502152301 51 49 1.0 4.0 0.00 0.00 0.00 55 1018.1
20260502152200 51 33 2.0 8.0 0.00 0.00 0.00 57 1018.1
20260502152101 51 333 2.0 8.0 0.00 0.00 0.00 55 1018.2
20260502152002 51 10 1.0 8.0 0.00 0.00 0.00 54 1018.2
20260502151901 51 360 1.0 8.0 0.00 0.00 0.00 56 1018.2
20260502151701 50 338 1.0 8.0 0.00 0.00 0.00 55 1018.2
20260502151602 50 344 2.0 8.0 0.00 0.00 0.00 54 1018.2
20260502151501 50 348 1.0 8.0 0.00 0.00 0.00 56 1018.1
20260502151401 50 28 4.0 8.0 0.00 0.00 0.00 54 1018.0
20260502151300 50 296 0.0 8.0 0.00 0.00 0.00 56 1018.1
20260502151100 49 350 4.0 8.0 0.00 0.00 0.00 55 1018.0
20260502151000 49 25 3.0 8.0 0.00 0.00 0.00 55 1018.0
20260502150900 49 5 2.0 5.0 0.00 0.00 0.00 54 1017.9
20260502150800 49 94 1.0 9.0 0.00 0.00 0.00 52 1017.9
20260502150701 49 81 1.0 10.0 0.00 0.00 0.00 51 1017.9
20260502150600 49 36 1.0 10.0 0.00 0.00 0.00 52 1017.9
20260502150501 49 114 2.0 10.0 0.00 0.00 0.00 54 1017.9
20260502150401 49 344 0.0 10.0 0.00 0.00 0.00 55 1018.0
20260502150301 49 342 2.0 10.0 0.00 0.00 0.00 54 1018.0
20260502130659 46 32 1.0 6.0 0.00 0.00 0.00 62 1017.9
20260502130600 46 24 6.0 6.0 0.00 0.00 0.00 61 1017.8
20260502130459 46 5 0.0 5.0 0.00 0.00 0.00 61 1017.8
20260502130400 46 5 0.0 5.0 0.00 0.00 0.00 62 1017.8
20260502130259 46 360 5.0 5.0 0.00 0.00 0.00 62 1017.9
20260502123801 44 18 3.0 8.0 0.00 0.00 0.00 62 1017.8
20260502123659 44 345 4.0 5.0 0.00 0.00 0.00 62 1017.8
20260502123459 44 10 3.0 5.0 0.00 0.00 0.00 62 1017.8
20260502123400 44 5 1.0 5.0 0.00 0.00 0.00 62 1017.8
20260502123200 44 5 4.0 5.0 0.00 0.00 0.00 63 1017.8
20260502123101 44 325 0.0 5.0 0.00 0.00 0.00 64 1017.7
20260502123001 44 14 2.0 6.0 0.00 0.00 0.00 64 1017.7
20260502122901 44 348 2.0 6.0 0.00 0.00 0.00 64 1017.8
20260502122759 43 9 0.0 6.0 0.00 0.00 0.00 64 1017.7
20260502122702 43 11 5.0 8.0 0.00 0.00 0.00 63 1017.7
20260502122559 43 346 2.0 8.0 0.00 0.00 0.00 64 1017.7
20260502122400 43 344 1.0 8.0 0.00 0.00 0.00 63 1017.7
20260502122300 43 360 3.0 8.0 0.00 0.00 0.00 63 1017.7
20260502122159 43 346 2.0 8.0 0.00 0.00 0.00 64 1017.7
20260502122101 43 5 2.0 8.0 0.00 0.00 0.00 64 1017.7
20260502121959 43 350 3.0 8.0 0.00 0.00 0.00 64 1017.7
20260502121901 43 325 2.0 8.0 0.00 0.00 0.00 64 1017.6
20260502121802 43 355 4.0 6.0 0.00 0.00 0.00 64 1017.6
20260502121500 43 26 3.0 6.0 0.00 0.00 0.00 65 1017.5
20260502121400 43 317 2.0 6.0 0.00 0.00 0.00 66 1017.5
20260502121300 42 22 2.0 6.0 0.00 0.00 0.00 67 1017.5
20260502121100 42 21 3.0 6.0 0.00 0.00 0.00 68 1017.5
20260502121001 42 14 1.0 6.0 0.00 0.00 0.00 68 1017.6
20260502120900 42 23 3.0 6.0 0.00 0.00 0.00 69 1017.6
20260502120700 41 351 1.0 5.0 0.00 0.00 0.00 70 1017.4
20260502120601 41 23 3.0 5.0 0.00 0.00 0.00 70 1017.4
20260502120501 41 16 2.0 5.0 0.00 0.00 0.00 71 1017.5
20260502120359 41 351 4.0 5.0 0.00 0.00 0.00 72 1017.4
20260502120300 40 350 2.0 5.0 0.00 0.00 0.00 72 1017.5
20260502115900 40 18 2.0 5.0 0.00 0.00 0.00 74 1017.4
20260502115759 40 355 4.0 5.0 0.00 0.00 0.00 75 1017.3
20260502115700 40 355 1.0 5.0 0.00 0.00 0.00 76 1017.3
20260502115600 40 5 2.0 5.0 0.00 0.00 0.00 77 1017.3
20260502115500 40 33 1.0 5.0 0.00 0.00 0.00 78 1017.3
20260502115401 39 22 3.0 5.0 0.00 0.00 0.00 79 1017.3
20260502115301 39 348 0.0 4.0 0.00 0.00 0.00 80 1017.2
20260502115200 39 344 0.0 4.0 0.00 0.00 0.00 80 1017.1
20260502114759 39 19 3.0 3.0 0.00 0.00 0.00 86 1017.2
20260502114701 39 13 0.0 0.0 0.00 0.00 0.00 86 1017.3
20260502114501 38 13 0.0 0.0 0.00 0.00 0.00 88 1017.3
20260502114259 38 13 0.0 0.0 0.00 0.00 0.00 89 1017.2
20260502114200 38 13 0.0 0.0 0.00 0.00 0.00 89 1017.3
20260502114102 37 13 0.0 0.0 0.00 0.00 0.00 89 1017.2
20260502114000 37 13 0.0 0.0 0.00 0.00 0.00 89 1017.2
20260502113859 37 13 0.0 0.0 0.00 0.00 0.00 89 1017.1
20260502113759 37 13 0.0 0.0 0.00 0.00 0.00 89 1017.2
20260502113702 36 13 0.0 0.0 0.00 0.00 0.00 89 1017.2
20260502113600 36 13 0.0 0.0 0.00 0.00 0.00 89 1017.1
20260502113400 36 13 0.0 0.0 0.00 0.00 0.00 89 1017.1
20260502113259 36 13 0.0 0.0 0.00 0.00 0.00 88 1017.1
20260502113159 36 13 0.0 0.0 0.00 0.00 0.00 88 1017.1
20260502113100 36 13 0.0 0.0 0.00 0.00 0.00 88 1017.1
20260502113001 35 13 0.0 0.0 0.00 0.00 0.00 88 1017.1
20260502112900 35 13 0.0 0.0 0.00 0.00 0.00 88 1017.0
20260502112759 35 13 0.0 0.0 0.00 0.00 0.00 88 1017.1
20260502112603 35 13 0.0 0.0 0.00 0.00 0.00 88 1017.1
20260502112501 35 13 0.0 0.0 0.00 0.00 0.00 87 1017.0
20260502112359 35 13 0.0 0.0 0.00 0.00 0.00 87 1017.0
20260502112001 35 13 0.0 0.0 0.00 0.00 0.00 87 1016.9
20260502111900 35 13 0.0 0.0 0.00 0.00 0.00 87 1016.9
20260502111800 35 13 0.0 0.0 0.00 0.00 0.00 87 1016.9
20260502111702 35 13 0.0 0.0 0.00 0.00 0.00 87 1016.8
20260502111559 35 13 0.0 0.0 0.00 0.00 0.00 86 1016.9
20260502111500 34 13 0.0 0.0 0.00 0.00 0.00 86 1016.8
20260502111359 34 13 0.0 0.0 0.00 0.00 0.00 86 1016.8
20260502111301 34 13 0.0 0.0 0.00 0.00 0.00 86 1016.8
20260502111159 34 13 0.0 0.0 0.00 0.00 0.00 86 1016.8
20260502111101 34 13 0.0 0.0 0.00 0.00 0.00 86 1016.7
20260502110959 34 13 0.0 0.0 0.00 0.00 0.00 86 1016.7
20260502110901 34 13 0.0 0.0 0.00 0.00 0.00 86 1016.6
20260502110759 34 13 0.0 0.0 0.00 0.00 0.00 86 1016.7
20260502110659 34 13 0.0 0.0 0.00 0.00 0.00 85 1016.7
20260502110600 34 13 0.0 0.0 0.00 0.00 0.00 85 1016.8
20260502110500 34 13 0.0 0.0 0.00 0.00 0.00 85 1016.8
20260502110359 34 13 0.0 0.0 0.00 0.00 0.00 85 1016.8
20260502110302 34 13 0.0 0.0 0.00 0.00 0.00 85 1016.8
20260502110200 34 13 0.0 0.0 0.00 0.00 0.00 85 1016.8
20260502110101 34 13 0.0 0.0 0.00 0.00 0.00 85 1016.8
20260502110001 34 13 0.0 0.0 0.00 0.00 0.00 86 1016.8
20260502105901 35 13 0.0 0.0 0.00 0.00 0.00 86 1016.8
20260502105800 34 13 0.0 0.0 0.00 0.00 0.00 86 1016.8
20260502105701 34 13 0.0 0.0 0.00 0.00 0.00 86 1016.9
20260502105600 35 13 0.0 0.0 0.00 0.00 0.00 86 1016.9
20260502105501 35 13 0.0 0.0 0.00 0.00 0.00 86 1016.9
20260502105400 35 13 0.0 0.0 0.00 0.00 0.00 86 1017.0
20260502105159 34 13 0.0 0.0 0.00 0.00 0.00 85 1017.0
20260502105059 34 13 0.0 0.0 0.00 0.00 0.00 85 1017.0
20260502105002 34 13 0.0 0.0 0.00 0.00 0.00 85 1017.0
20260502104859 34 13 0.0 0.0 0.00 0.00 0.00 84 1017.0
20260502104759 34 13 0.0 0.0 0.00 0.00 0.00 84 1017.0
20260502104701 34 13 0.0 0.0 0.00 0.00 0.00 84 1017.0
20260502104559 34 13 0.0 0.0 0.00 0.00 0.00 84 1017.0
20260502104459 34 13 0.0 0.0 0.00 0.00 0.00 84 1017.0
20260502104400 34 13 0.0 0.0 0.00 0.00 0.00 84 1017.1
20260502104300 34 13 0.0 0.0 0.00 0.00 0.00 83 1017.1
20260502104200 34 13 0.0 0.0 0.00 0.00 0.00 84 1017.1
20260502104101 35 13 0.0 0.0 0.00 0.00 0.00 84 1017.1
20260502104000 35 13 0.0 0.0 0.00 0.00 0.00 83 1017.1
20260502103900 35 13 0.0 0.0 0.00 0.00 0.00 83 1017.1
20260502103800 35 13 0.0 0.0 0.00 0.00 0.00 83 1017.0
20260502103601 35 13 0.0 0.0 0.00 0.00 0.00 83 1017.0
20260502103503 35 13 0.0 0.0 0.00 0.00 0.00 83 1017.0
20260502103359 35 13 0.0 0.0 0.00 0.00 0.00 83 1017.0
20260502103300 35 13 0.0 0.0 0.00 0.00 0.00 83 1017.0
20260502103159 35 13 0.0 0.0 0.00 0.00 0.00 83 1017.1
20260502102959 35 13 0.0 0.0 0.00 0.00 0.00 83 1017.1
20260502102858 35 13 0.0 0.0 0.00 0.00 0.00 83 1017.1
20260502102759 35 13 0.0 0.0 0.00 0.00 0.00 83 1017.1
20260502102559 35 13 0.0 0.0 0.00 0.00 0.00 83 1017.1
20260502102458 35 13 0.0 0.0 0.00 0.00 0.00 83 1017.1
20260502102359 35 13 0.0 0.0 0.00 0.00 0.00 83 1017.1
20260502102259 35 13 0.0 0.0 0.00 0.00 0.00 83 1017.1
20260502102058 35 13 0.0 0.0 0.00 0.00 0.00 82 1017.1
20260502101958 35 13 0.0 0.0 0.00 0.00 0.00 82 1017.1
20260502101859 35 13 0.0 0.0 0.00 0.00 0.00 83 1017.1
20260502101759 35 13 0.0 0.0 0.00 0.00 0.00 83 1017.1
20260502101500 35 13 0.0 0.0 0.00 0.00 0.00 82 1017.0
20260502101358 35 13 0.0 0.0 0.00 0.00 0.00 82 1017.0
20260502101300 35 13 0.0 0.0 0.00 0.00 0.00 82 1017.1
20260502101159 35 13 0.0 0.0 0.00 0.00 0.00 82 1017.0
20260502100959 36 13 0.0 0.0 0.00 0.00 0.00 82 1017.0
20260502100859 36 13 0.0 0.0 0.00 0.00 0.00 82 1017.0
20260502100659 36 13 0.0 0.0 0.00 0.00 0.00 82 1017.0
20260502100558 36 13 0.0 0.0 0.00 0.00 0.00 82 1017.0
20260502100458 36 13 0.0 0.0 0.00 0.00 0.00 81 1017.1
20260502100401 36 13 0.0 0.0 0.00 0.00 0.00 81 1017.0
20260502100259 36 13 0.0 0.0 0.00 0.00 0.00 81 1017.1
20260502100158 36 13 0.0 0.0 0.00 0.00 0.00 81 1017.1
20260502091500 38 13 0.0 0.0 0.00 0.00 0.00 78 1017.0
20260502091301 38 13 0.0 0.0 0.00 0.00 0.00 78 1016.9
20260502091201 38 13 0.0 0.0 0.00 0.00 0.00 78 1017.0
20260502091000 38 13 0.0 0.0 0.00 0.00 0.00 78 1016.9
20260502090859 38 13 0.0 0.0 0.00 0.00 0.00 78 1017.1
20260502090700 38 13 0.0 0.0 0.00 0.00 0.00 78 1017.0
20260502090600 38 13 0.0 0.0 0.00 0.00 0.00 77 1017.0
20260502090500 38 13 0.0 0.0 0.00 0.00 0.00 77 1017.0
20260502090359 38 13 0.0 0.0 0.00 0.00 0.00 77 1017.0
20260502090300 38 13 0.0 0.0 0.00 0.00 0.00 76 1017.0
20260502090159 38 13 0.0 0.0 0.00 0.00 0.00 75 1017.0
20260502071401 40 15 0.0 3.0 0.00 0.00 0.00 75 1016.8
20260502071259 40 15 0.0 4.0 0.00 0.00 0.00 75 1016.7
20260502071159 40 14 1.0 4.0 0.00 0.00 0.00 76 1016.8
20260502071101 40 11 0.0 4.0 0.00 0.00 0.00 76 1016.8
20260502071000 40 19 0.0 4.0 0.00 0.00 0.00 76 1016.7
20260502070658 40 5 0.0 4.0 0.00 0.00 0.00 77 1016.8
20260502070600 40 5 2.0 4.0 0.00 0.00 0.00 77 1016.8
20260502070500 40 348 1.0 4.0 0.00 0.00 0.00 77 1016.6
20260502070359 39 5 3.0 4.0 0.00 0.00 0.00 78 1016.7
20260502070259 39 17 0.0 4.0 0.00 0.00 0.00 79 1016.7
20260502070200 39 15 1.0 4.0 0.00 0.00 0.00 79 1016.7
20260502070001 39 11 1.0 3.0 0.00 0.00 0.00 80 1016.7
20260502065759 39 22 0.0 0.0 0.00 0.00 0.00 81 1016.7
20260502065558 38 5 0.0 0.0 0.00 0.00 0.00 82 1016.7
20260502065500 38 20 0.0 0.0 0.00 0.00 0.00 83 1016.6
20260502065400 38 23 0.0 0.0 0.00 0.00 0.00 83 1016.6
20260502065258 38 23 0.0 0.0 0.00 0.00 0.00 84 1016.7
20260502065159 38 5 0.0 0.0 0.00 0.00 0.00 84 1016.6
20260502065058 38 5 0.0 0.0 0.00 0.00 0.00 84 1016.7
20260502064959 38 5 0.0 0.0 0.00 0.00 0.00 84 1016.6
20260502064859 38 5 0.0 0.0 0.00 0.00 0.00 85 1016.7
20260502064759 38 355 0.0 0.0 0.00 0.00 0.00 85 1016.8
20260502064559 37 355 0.0 0.0 0.00 0.00 0.00 85 1016.8
20260502064459 37 355 0.0 0.0 0.00 0.00 0.00 85 1016.8
20260502064359 37 355 0.0 0.0 0.00 0.00 0.00 85 1016.7
20260502064300 37 355 0.0 0.0 0.00 0.00 0.00 85 1016.8
20260502064059 37 355 0.0 0.0 0.00 0.00 0.00 85 1016.8
20260502064000 37 355 0.0 0.0 0.00 0.00 0.00 85 1016.8
20260502063859 37 355 0.0 0.0 0.00 0.00 0.00 85 1016.8
20260502063559 37 355 0.0 0.0 0.00 0.00 0.00 85 1016.9
20260502063501 37 355 0.0 0.0 0.00 0.00 0.00 85 1016.9
20260502063400 37 355 0.0 0.0 0.00 0.00 0.00 84 1017.0
20260502063159 37 355 0.0 0.0 0.00 0.00 0.00 85 1017.0
20260502063100 37 355 0.0 0.0 0.00 0.00 0.00 85 1017.0
20260502062959 37 355 0.0 0.0 0.00 0.00 0.00 84 1017.1
20260502062900 37 355 0.0 0.0 0.00 0.00 0.00 85 1017.1
20260502062759 37 355 0.0 0.0 0.00 0.00 0.00 84 1017.1
20260502062659 37 355 0.0 0.0 0.00 0.00 0.00 84 1017.1
20260502062558 37 355 0.0 0.0 0.00 0.00 0.00 84 1017.1
20260502062459 37 355 0.0 0.0 0.00 0.00 0.00 84 1017.0
20260502062359 37 355 0.0 0.0 0.00 0.00 0.00 84 1017.1
20260502062301 37 355 0.0 0.0 0.00 0.00 0.00 84 1017.0
20260502061959 37 355 0.0 0.0 0.00 0.00 0.00 84 1017.3
20260502061859 38 355 0.0 0.0 0.00 0.00 0.00 84 1017.3
20260502061759 37 355 0.0 0.0 0.00 0.00 0.00 84 1017.3
20260502061659 38 355 0.0 0.0 0.00 0.00 0.00 84 1017.4
20260502061359 38 355 0.0 0.0 0.00 0.00 0.00 84 1017.4
20260502061159 38 355 0.0 0.0 0.00 0.00 0.00 84 1017.4
20260502061101 38 355 0.0 0.0 0.00 0.00 0.00 84 1017.4
20260502060859 38 355 0.0 0.0 0.00 0.00 0.00 84 1017.3
20260502060800 38 355 0.0 0.0 0.00 0.00 0.00 84 1017.4
20260502060659 38 355 0.0 0.0 0.00 0.00 0.00 84 1017.4
20260502060601 38 355 0.0 0.0 0.00 0.00 0.00 84 1017.5
20260502060500 38 355 0.0 0.0 0.00 0.00 0.00 84 1017.4
20260502060358 38 355 0.0 0.0 0.00 0.00 0.00 84 1017.4
20260502060259 38 355 0.0 0.0 0.00 0.00 0.00 84 1017.4
20260502060159 38 355 0.0 0.0 0.00 0.00 0.00 84 1017.4
20260502060100 38 355 0.0 0.0 0.00 0.00 0.00 84 1017.5
20260502055959 38 355 0.0 0.0 0.00 0.00 0.00 84 1017.4
20260502055859 38 355 0.0 0.0 0.00 0.00 0.00 84 1017.5
20260502055758 38 355 0.0 0.0 0.00 0.00 0.00 84 1017.4
20260502055659 38 355 0.0 0.0 0.00 0.00 0.00 84 1017.5
20260502055458 38 355 0.0 0.0 0.00 0.00 0.00 83 1017.5
20260502055400 38 355 0.0 0.0 0.00 0.00 0.00 83 1017.5
20260502055259 38 355 0.0 0.0 0.00 0.00 0.00 83 1017.5
20260502055159 38 355 0.0 0.0 0.00 0.00 0.00 83 1017.5
20260502055059 38 355 0.0 0.0 0.00 0.00 0.00 83 1017.5
20260502055000 38 355 0.0 0.0 0.00 0.00 0.00 83 1017.6
20260502054759 38 355 0.0 0.0 0.00 0.00 0.00 83 1017.6
20260502054658 38 355 0.0 0.0 0.00 0.00 0.00 83 1017.6
20260502054458 38 355 0.0 0.0 0.00 0.00 0.00 83 1017.5
20260502054400 38 355 0.0 0.0 0.00 0.00 0.00 83 1017.5
20260502054300 38 355 0.0 0.0 0.00 0.00 0.00 83 1017.5
20260502054059 38 355 0.0 0.0 0.00 0.00 0.00 83 1017.5
20260502053958 38 355 0.0 0.0 0.00 0.00 0.00 82 1017.5
20260502053859 38 355 0.0 0.0 0.00 0.00 0.00 82 1017.5
20260502053459 38 355 0.0 0.0 0.00 0.00 0.00 82 1017.4
20260502053358 38 355 0.0 0.0 0.00 0.00 0.00 82 1017.5
20260502053259 38 355 0.0 0.0 0.00 0.00 0.00 82 1017.4
20260502053200 38 355 0.0 0.0 0.00 0.00 0.00 82 1017.4
20260502053058 38 355 0.0 0.0 0.00 0.00 0.00 82 1017.4
20260502052959 38 355 0.0 0.0 0.00 0.00 0.00 82 1017.4
20260502052859 38 355 0.0 0.0 0.00 0.00 0.00 82 1017.4
20260502052758 38 355 0.0 0.0 0.00 0.00 0.00 82 1017.4
20260502052658 38 355 0.0 0.0 0.00 0.00 0.00 82 1017.4
20260502052559 38 355 0.0 0.0 0.00 0.00 0.00 82 1017.4
20260502052459 38 355 0.0 0.0 0.00 0.00 0.00 82 1017.4
20260502052359 38 355 0.0 0.0 0.00 0.00 0.00 82 1017.3
20260502052059 38 355 0.0 0.0 0.00 0.00 0.00 82 1017.4
20260502051959 38 355 0.0 0.0 0.00 0.00 0.00 82 1017.3
20260502051858 38 355 0.0 0.0 0.00 0.00 0.00 82 1017.3
20260502051758 39 355 0.0 0.0 0.00 0.00 0.00 82 1017.3
20260502051659 39 355 0.0 0.0 0.00 0.00 0.00 82 1017.3
20260502051558 39 355 0.0 0.0 0.00 0.00 0.00 82 1017.3
20260502051359 39 355 0.0 0.0 0.00 0.00 0.00 82 1017.3
20260502051258 39 355 0.0 0.0 0.00 0.00 0.00 82 1017.3
20260502051100 39 355 0.0 0.0 0.00 0.00 0.00 82 1017.3
20260502050959 39 355 0.0 0.0 0.00 0.00 0.00 81 1017.3
20260502050859 39 355 0.0 0.0 0.00 0.00 0.00 81 1017.3
20260502050758 39 355 0.0 0.0 0.00 0.00 0.00 81 1017.4
20260502050658 39 355 0.0 0.0 0.00 0.00 0.00 81 1017.4
20260502050558 39 355 0.0 0.0 0.00 0.00 0.00 81 1017.4
20260502050459 39 355 0.0 0.0 0.00 0.00 0.00 81 1017.4
20260502050401 39 355 0.0 0.0 0.00 0.00 0.00 81 1017.4
20260502050259 39 355 0.0 0.0 0.00 0.00 0.00 81 1017.4
20260502050201 39 355 0.0 0.0 0.00 0.00 0.00 81 1017.3
20260502050058 39 355 0.0 0.0 0.00 0.00 0.00 81 1017.4
20260502045959 39 355 0.0 0.0 0.00 0.00 0.00 81 1017.4
20260502045859 39 355 0.0 0.0 0.00 0.00 0.00 80 1017.3
20260502045659 39 355 0.0 0.0 0.00 0.00 0.00 80 1017.4
20260502045558 39 355 0.0 0.0 0.00 0.00 0.00 80 1017.4
20260502045500 39 355 0.0 0.0 0.00 0.00 0.00 80 1017.5
20260502045200 39 355 0.0 0.0 0.00 0.00 0.00 80 1017.4
20260502045058 39 355 0.0 0.0 0.00 0.00 0.00 80 1017.4
20260502045000 39 355 0.0 0.0 0.00 0.00 0.00 80 1017.4
20260502044659 39 355 0.0 0.0 0.00 0.00 0.00 80 1017.4
20260502044558 39 355 0.0 0.0 0.00 0.00 0.00 80 1017.4
20260502044400 39 355 0.0 0.0 0.00 0.00 0.00 80 1017.4
20260502044258 40 355 0.0 0.0 0.00 0.00 0.00 79 1017.4
20260502044200 40 355 0.0 0.0 0.00 0.00 0.00 80 1017.4
20260502044058 40 355 0.0 0.0 0.00 0.00 0.00 80 1017.5
20260502043958 40 355 0.0 0.0 0.00 0.00 0.00 79 1017.4
20260502043900 40 355 0.0 0.0 0.00 0.00 0.00 79 1017.4
20260502043759 40 355 0.0 0.0 0.00 0.00 0.00 79 1017.5
20260502043659 40 355 0.0 0.0 0.00 0.00 0.00 79 1017.4
20260502043559 40 355 0.0 0.0 0.00 0.00 0.00 79 1017.4
20260502043459 40 355 0.0 0.0 0.00 0.00 0.00 79 1017.5
20260502043359 40 355 0.0 0.0 0.00 0.00 0.00 79 1017.5
20260502043258 40 355 0.0 0.0 0.00 0.00 0.00 79 1017.5
20260502043200 40 355 0.0 0.0 0.00 0.00 0.00 79 1017.5
20260502043000 40 355 0.0 0.0 0.00 0.00 0.00 79 1017.5
20260502042901 40 355 0.0 0.0 0.00 0.00 0.00 79 1017.5
20260502042802 40 355 0.0 0.0 0.00 0.00 0.00 78 1017.5
20260502042701 40 355 0.0 0.0 0.00 0.00 0.00 78 1017.4
20260502042603 40 355 0.0 0.0 0.00 0.00 0.00 79 1017.5
20260502042401 40 355 0.0 0.0 0.00 0.00 0.00 79 1017.5
20260502042202 40 355 0.0 0.0 0.00 0.00 0.00 78 1017.5
20260502042100 40 355 0.0 0.0 0.00 0.00 0.00 78 1017.5
20260502042000 40 355 0.0 0.0 0.00 0.00 0.00 78 1017.6
20260502041900 40 355 0.0 0.0 0.00 0.00 0.00 78 1017.6
20260502041800 40 355 0.0 0.0 0.00 0.00 0.00 78 1017.6
20260502041702 40 355 0.0 0.0 0.00 0.00 0.00 78 1017.6
20260502041602 40 355 0.0 0.0 0.00 0.00 0.00 78 1017.6
20260502041500 40 355 0.0 0.0 0.00 0.00 0.00 78 1017.6
20260502041401 40 355 0.0 0.0 0.00 0.00 0.00 78 1017.6
20260502041201 40 355 0.0 0.0 0.00 0.00 0.00 78 1017.6
20260502041000 40 355 0.0 0.0 0.00 0.00 0.00 78 1017.5
20260502040900 40 355 0.0 0.0 0.00 0.00 0.00 78 1017.6
20260502040600 40 355 0.0 0.0 0.00 0.00 0.00 78 1017.5
20260502040501 40 355 0.0 0.0 0.00 0.00 0.00 78 1017.5
20260502040401 40 355 0.0 0.0 0.00 0.00 0.00 78 1017.5
20260502040301 40 355 0.0 0.0 0.00 0.00 0.00 77 1017.5
20260502040200 41 355 0.0 0.0 0.00 0.00 0.00 77 1017.4
20260502040100 41 355 0.0 0.0 0.00 0.00 0.00 77 1017.4
20260502035900 41 355 0.0 0.0 0.00 0.00 0.00 77 1017.4
20260502035801 41 355 0.0 0.0 0.00 0.00 0.00 77 1017.5
20260502035701 41 355 0.0 0.0 0.00 0.00 0.00 77 1017.5
20260502035400 41 355 0.0 0.0 0.00 0.00 0.00 77 1017.5
20260502035306 41 355 0.0 0.0 0.00 0.00 0.00 77 1017.5
20260502035100 41 355 0.0 0.0 0.00 0.00 0.00 77 1017.5
20260502035003 41 355 0.0 0.0 0.00 0.00 0.00 77 1017.5
20260502034901 41 355 0.0 0.0 0.00 0.00 0.00 77 1017.5
20260502034701 41 355 0.0 0.0 0.00 0.00 0.00 77 1017.4
20260502034600 41 355 0.0 0.0 0.00 0.00 0.00 77 1017.5
20260502034500 41 355 0.0 0.0 0.00 0.00 0.00 77 1017.5
20260502034401 41 355 0.0 0.0 0.00 0.00 0.00 77 1017.6
20260502034301 41 355 0.0 0.0 0.00 0.00 0.00 77 1017.5
20260502034202 41 355 0.0 0.0 0.00 0.00 0.00 77 1017.5
20260502034102 41 355 0.0 0.0 0.00 0.00 0.00 77 1017.6
20260502033900 41 355 0.0 0.0 0.00 0.00 0.00 77 1017.6
20260502033700 41 355 0.0 0.0 0.00 0.00 0.00 77 1017.6
20260502033600 41 355 0.0 0.0 0.00 0.00 0.00 77 1017.5
20260502033501 41 355 0.0 0.0 0.00 0.00 0.00 77 1017.6
20260502033401 41 355 0.0 0.0 0.00 0.00 0.00 77 1017.6
20260502033301 41 355 0.0 0.0 0.00 0.00 0.00 77 1017.5
20260502033200 41 355 0.0 0.0 0.00 0.00 0.00 77 1017.5
20260502033101 41 355 0.0 0.0 0.00 0.00 0.00 77 1017.6
20260502033001 41 355 0.0 0.0 0.00 0.00 0.00 77 1017.6
20260502032902 41 355 0.0 0.0 0.00 0.00 0.00 77 1017.6
20260502032701 41 355 0.0 0.0 0.00 0.00 0.00 77 1017.6
20260502032602 41 355 0.0 0.0 0.00 0.00 0.00 77 1017.5
20260502032502 41 355 0.0 0.0 0.00 0.00 0.00 77 1017.5
20260502032300 41 355 0.0 0.0 0.00 0.00 0.00 76 1017.5
20260502032201 41 355 0.0 0.0 0.00 0.00 0.00 76 1017.5
20260502032103 41 355 0.0 0.0 0.00 0.00 0.00 76 1017.4
20260502032003 42 355 0.0 0.0 0.00 0.00 0.00 76 1017.4
20260502031900 42 355 0.0 0.0 0.00 0.00 0.00 76 1017.4
20260502031801 42 355 0.0 0.0 0.00 0.00 0.00 76 1017.3
20260502031702 42 355 0.0 0.0 0.00 0.00 0.00 76 1017.3
20260502031602 42 355 0.0 0.0 0.00 0.00 0.00 76 1017.4
20260502031401 42 355 0.0 0.0 0.00 0.00 0.00 76 1017.4
20260502031301 42 355 0.0 0.0 0.00 0.00 0.00 76 1017.4
20260502031203 42 355 0.0 0.0 0.00 0.00 0.00 76 1017.4
20260502030901 42 355 0.0 0.0 0.00 0.00 0.00 76 1017.4
20260502030800 42 355 0.0 0.0 0.00 0.00 0.00 76 1017.4
20260502030701 42 355 0.0 0.0 0.00 0.00 0.00 76 1017.5
20260502030601 42 355 0.0 0.0 0.00 0.00 0.00 76 1017.5
20260502030503 42 355 0.0 0.0 0.00 0.00 0.00 76 1017.5
20260502030400 42 355 0.0 0.0 0.00 0.00 0.00 76 1017.5
20260502030302 42 355 0.0 0.0 0.00 0.00 0.00 76 1017.6
20260502030101 42 355 0.0 0.0 0.00 0.00 0.00 76 1017.5
20260502030001 42 355 0.0 0.0 0.00 0.00 0.00 76 1017.5
20260502025901 43 355 0.0 0.0 0.00 0.00 0.00 76 1017.4
20260502025801 43 355 0.0 0.0 0.00 0.00 0.00 76 1017.4
20260502025700 43 355 0.0 0.0 0.00 0.00 0.00 76 1017.4
20260502025601 43 355 0.0 0.0 0.00 0.00 0.00 75 1017.4
20260502025501 43 355 0.0 0.0 0.00 0.00 0.00 75 1017.3
20260502025402 43 355 0.0 0.0 0.00 0.00 0.00 75 1017.2
20260502025301 43 355 0.0 0.0 0.00 0.00 0.00 75 1017.3
20260502025202 43 355 0.0 0.0 0.00 0.00 0.00 75 1017.3
20260502025101 43 355 0.0 0.0 0.00 0.00 0.00 76 1017.3
20260502025001 43 355 0.0 0.0 0.00 0.00 0.00 76 1017.2
20260502024900 43 355 0.0 0.0 0.00 0.00 0.00 76 1017.3
20260502024801 43 355 0.0 0.0 0.00 0.00 0.00 76 1017.3
20260502024700 43 355 0.0 0.0 0.00 0.00 0.00 76 1017.3
20260502024601 43 355 0.0 0.0 0.00 0.00 0.00 76 1017.2
20260502024401 43 355 0.0 0.0 0.00 0.00 0.00 75 1017.3
20260502024201 43 355 0.0 0.0 0.00 0.00 0.00 74 1017.2
20260502024103 43 355 0.0 0.0 0.00 0.00 0.00 74 1017.3
20260502023902 43 355 0.0 0.0 0.00 0.00 0.00 74 1017.2
20260502023701 44 355 0.0 0.0 0.00 0.00 0.00 74 1017.3
20260502023600 44 355 0.0 0.0 0.00 0.00 0.00 73 1017.3
20260502023501 44 355 0.0 0.0 0.00 0.00 0.00 73 1017.3
20260502023402 44 355 0.0 0.0 0.00 0.00 0.00 73 1017.2
20260502023300 44 355 0.0 0.0 0.00 0.00 0.00 73 1017.1
20260502023200 44 355 0.0 0.0 0.00 0.00 0.00 72 1017.1
20260502023100 44 355 0.0 0.0 0.00 0.00 0.00 72 1017.1
20260502023003 44 355 0.0 0.0 0.00 0.00 0.00 72 1017.1
20260502022900 44 355 0.0 0.0 0.00 0.00 0.00 72 1017.0
20260502022802 44 355 0.0 0.0 0.00 0.00 0.00 72 1017.0
20260502022700 44 355 0.0 0.0 0.00 0.00 0.00 71 1017.1
20260502022502 44 355 0.0 0.0 0.00 0.00 0.00 71 1017.0
20260502022301 44 355 0.0 0.0 0.00 0.00 0.00 71 1016.9
20260502022100 44 355 0.0 0.0 0.00 0.00 0.00 70 1016.9
20260502021900 44 355 0.0 0.0 0.00 0.00 0.00 70 1017.0
20260502021800 44 355 0.0 0.0 0.00 0.00 0.00 70 1016.9
20260502021702 44 355 0.0 0.0 0.00 0.00 0.00 70 1017.0
20260502021601 45 355 0.0 0.0 0.00 0.00 0.00 70 1016.9
20260502021500 45 355 0.0 0.0 0.00 0.00 0.00 70 1016.9
20260502021302 45 355 0.0 0.0 0.00 0.00 0.00 70 1016.8
20260502021000 45 355 0.0 0.0 0.00 0.00 0.00 70 1016.7
20260502020901 45 355 0.0 0.0 0.00 0.00 0.00 70 1016.7
20260502020503 45 355 0.0 0.0 0.00 0.00 0.00 70 1016.7
20260502020402 45 355 0.0 0.0 0.00 0.00 0.00 70 1016.7
20260502020202 45 355 0.0 0.0 0.00 0.00 0.00 70 1016.7
20260502020100 45 355 0.0 0.0 0.00 0.00 0.00 70 1016.7
20260502015902 45 355 0.0 0.0 0.00 0.00 0.00 70 1016.6
20260502015803 45 355 0.0 0.0 0.00 0.00 0.00 70 1016.7
20260502015601 45 355 0.0 0.0 0.00 0.00 0.00 69 1016.6
20260502015503 45 355 0.0 0.0 0.00 0.00 0.00 69 1016.6
20260502015404 45 355 0.0 0.0 0.00 0.00 0.00 69 1016.7
20260502015305 45 355 0.0 0.0 0.00 0.00 0.00 69 1016.6
20260502015201 45 355 0.0 0.0 0.00 0.00 0.00 69 1016.6
20260502015103 45 355 0.0 0.0 0.00 0.00 0.00 69 1016.5
20260502015001 45 342 0.0 0.0 0.00 0.00 0.00 70 1016.5
20260502014901 45 344 0.0 0.0 0.00 0.00 0.00 70 1016.5
20260502014701 45 344 0.0 0.0 0.00 0.00 0.00 69 1016.5
20260502014602 45 344 0.0 0.0 0.00 0.00 0.00 69 1016.4
20260502014501 45 344 0.0 0.0 0.00 0.00 0.00 69 1016.4
20260502014402 45 344 0.0 0.0 0.00 0.00 0.00 69 1016.4
20260502014305 45 344 0.0 0.0 0.00 0.00 0.00 69 1016.4
20260502014201 45 344 0.0 0.0 0.00 0.00 0.00 69 1016.3
20260502014101 45 344 0.0 0.0 0.00 0.00 0.00 69 1016.3
20260502014001 45 344 0.0 0.0 0.00 0.00 0.00 69 1016.3
20260502013801 46 344 0.0 0.0 0.00 0.00 0.00 70 1016.3
20260502013703 46 344 0.0 0.0 0.00 0.00 0.00 70 1016.3
20260502013600 46 344 0.0 0.0 0.00 0.00 0.00 70 1016.3
20260502013501 46 344 0.0 0.0 0.00 0.00 0.00 69 1016.3
20260502013301 46 344 0.0 0.0 0.00 0.00 0.00 69 1016.3
20260502013200 46 344 0.0 0.0 0.00 0.00 0.00 69 1016.3
20260502013101 46 344 0.0 0.0 0.00 0.00 0.00 69 1016.3
20260502013002 46 344 0.0 0.0 0.00 0.00 0.00 69 1016.3
20260502012802 46 344 0.0 0.0 0.00 0.00 0.00 69 1016.3
20260502012500 46 344 0.0 0.0 0.00 0.00 0.00 69 1016.3
20260502012200 46 344 0.0 0.0 0.00 0.00 0.00 68 1016.3
20260502012101 46 344 0.0 0.0 0.00 0.00 0.00 68 1016.3
20260502011900 46 344 0.0 0.0 0.00 0.00 0.00 68 1016.3
20260502011801 46 344 0.0 0.0 0.00 0.00 0.00 68 1016.3
20260502011700 46 344 0.0 0.0 0.00 0.00 0.00 68 1016.3
20260502011600 46 344 0.0 0.0 0.00 0.00 0.00 68 1016.3
20260502011301 47 344 0.0 0.0 0.00 0.00 0.00 67 1016.3